Meteo orario Gogolevo

Oggi, 15 Aprile, Giovedi

Tempo Temperatura Precipitazioni Vento Pressione Umidità
00:00 +4°C° 0.1 mm 3 m/s 751 mm Hg 88%
01:00 +4°C° 0.1 mm 3 m/s 751 mm Hg 87%
02:00 +4°C° 0 mm 3 m/s 751 mm Hg 86%
03:00 +4°C° 0 mm 3 m/s 751 mm Hg 86%
04:00 +3°C° 0 mm 3 m/s 751 mm Hg 85%
05:00 +3°C° 0 mm 3 m/s 751 mm Hg 85%
06:00 +3°C° 0 mm 3 m/s 752 mm Hg 84%
07:00 +4°C° 0 mm 4 m/s 752 mm Hg 83%
08:00 +4°C° 0 mm 4 m/s 752 mm Hg 80%
09:00 +4°C° 0 mm 4 m/s 752 mm Hg 78%
10:00 +4°C° 0 mm 4 m/s 752 mm Hg 76%
11:00 +5°C° 0 mm 4 m/s 753 mm Hg 73%
12:00 +5°C° 0 mm 5 m/s 753 mm Hg 72%
13:00 +6°C° 0 mm 5 m/s 753 mm Hg 70%
14:00 +7°C° 0 mm 5 m/s 753 mm Hg 68%
15:00 +7°C° 0 mm 5 m/s 753 mm Hg 68%
16:00 +7°C° 0 mm 5 m/s 753 mm Hg 67%
17:00 +7°C° 0 mm 5 m/s 753 mm Hg 67%
18:00 +6°C° 0 mm 5 m/s 753 mm Hg 68%
19:00 +6°C° 0 mm 5 m/s 753 mm Hg 70%
20:00 +5°C° 0 mm 5 m/s 753 mm Hg 71%
21:00 +5°C° 0 mm 5 m/s 753 mm Hg 72%
22:00 +5°C° 0 mm 5 m/s 753 mm Hg 74%
23:00 +3°C° 0 mm 5 m/s 753 mm Hg 75%

Domani, 16 Aprile, Venerdi

Tempo Temperatura Precipitazioni Vento Pressione Umidità
00:00 +3°C° 0 mm 5 m/s 753 mm Hg 76%
01:00 +4°C° 0 mm 4 m/s 753 mm Hg 77%
02:00 +3°C° 0 mm 4 m/s 753 mm Hg 79%
03:00 +3°C° 0 mm 4 m/s 753 mm Hg 80%
04:00 +1°C° 0 mm 4 m/s 753 mm Hg 81%
05:00 +1°C° 0 mm 4 m/s 753 mm Hg 83%
06:00 +3°C° 0 mm 4 m/s 754 mm Hg 80%
07:00 +3°C° 0 mm 5 m/s 754 mm Hg 76%
08:00 +3°C° 0 mm 5 m/s 754 mm Hg 73%
09:00 +6°C° 0 mm 5 m/s 754 mm Hg 70%
10:00 +7°C° 0 mm 5 m/s 754 mm Hg 66%
11:00 +8°C° 0 mm 5 m/s 754 mm Hg 62%
12:00 +9°C° 0 mm 5 m/s 754 mm Hg 60%
13:00 +10°C° 0 mm 5 m/s 754 mm Hg 58%
14:00 +10°C° 0 mm 5 m/s 754 mm Hg 56%
15:00 +10°C° 0 mm 5 m/s 754 mm Hg 56%
16:00 +9°C° 0 mm 5 m/s 754 mm Hg 56%
17:00 +9°C° 0 mm 5 m/s 754 mm Hg 56%
18:00 +8°C° 0 mm 5 m/s 755 mm Hg 56%
19:00 +7°C° 0 mm 4 m/s 755 mm Hg 55%
20:00 +6°C° 0 mm 4 m/s 755 mm Hg 55%
21:00 +6°C° 0 mm 4 m/s 755 mm Hg 57%
22:00 +5°C° 0 mm 4 m/s 755 mm Hg 60%
23:00 +5°C° 0 mm 4 m/s 755 mm Hg 63%

Dopodomani, 17 Aprile, Sabato

Tempo Temperatura Precipitazioni Vento Pressione Umidità
00:00 +4°C° 0 mm 4 m/s 756 mm Hg 66%
01:00 +4°C° 0 mm 4 m/s 756 mm Hg 68%
02:00 +3°C° 0 mm 4 m/s 756 mm Hg 71%
03:00 +3°C° 0 mm 4 m/s 756 mm Hg 73%
04:00 +1°C° 0 mm 4 m/s 756 mm Hg 74%
05:00 +1°C° 0 mm 4 m/s 756 mm Hg 76%
06:00 +3°C° 0 mm 4 m/s 756 mm Hg 70%
07:00 +5°C° 0 mm 4 m/s 756 mm Hg 65%
08:00 +6°C° 0 mm 5 m/s 756 mm Hg 59%
09:00 +7°C° 0 mm 5 m/s 756 mm Hg 54%
10:00 +9°C° 0 mm 5 m/s 756 mm Hg 49%
11:00 +10°C° 0 mm 5 m/s 756 mm Hg 44%
12:00 +12°C° 0 mm 5 m/s 756 mm Hg 41%
13:00 +12°C° 0 mm 5 m/s 756 mm Hg 38%
14:00 +13°C° 0 mm 5 m/s 756 mm Hg 35%
15:00 +12°C° 0 mm 4 m/s 756 mm Hg 38%
16:00 +12°C° 0 mm 4 m/s 756 mm Hg 41%
17:00 +11°C° 0 mm 4 m/s 756 mm Hg 44%
18:00 +10°C° 0 mm 3 m/s 756 mm Hg 50%
19:00 +8°C° 0 mm 3 m/s 756 mm Hg 56%
20:00 +5°C° 0 mm 3 m/s 756 mm Hg 63%
21:00 +5°C° 0 mm 3 m/s 756 mm Hg 66%
22:00 +4°C° 0 mm 3 m/s 756 mm Hg 69%
23:00 +4°C° 0 mm 3 m/s 756 mm Hg 72%

18 Aprile, Domenica

Tempo Temperatura Precipitazioni Vento Pressione Umidità
00:00 +4°C° 0 mm 2 m/s 756 mm Hg 75%
01:00 +3°C° 0 mm 2 m/s 756 mm Hg 79%
02:00 +3°C° 0 mm 2 m/s 756 mm Hg 82%
03:00 +2°C° 0 mm 2 m/s 756 mm Hg 84%
04:00 +2°C° 0 mm 2 m/s 756 mm Hg 85%
05:00 +2°C° 0 mm 2 m/s 757 mm Hg 87%
06:00 +4°C° 0 mm 2 m/s 757 mm Hg 78%
07:00 +5°C° 0 mm 3 m/s 757 mm Hg 69%
08:00 +7°C° 0 mm 3 m/s 757 mm Hg 60%
09:00 +8°C° 0 mm 4 m/s 756 mm Hg 55%
10:00 +10°C° 0 mm 4 m/s 756 mm Hg 49%
11:00 +11°C° 0 mm 4 m/s 756 mm Hg 43%
12:00 +12°C° 0 mm 4 m/s 756 mm Hg 41%
13:00 +12°C° 0 mm 4 m/s 756 mm Hg 39%
14:00 +12°C° 0 mm 4 m/s 756 mm Hg 37%
15:00 +12°C° 0 mm 4 m/s 756 mm Hg 40%
16:00 +11°C° 0 mm 4 m/s 756 mm Hg 43%
17:00 +11°C° 0 mm 4 m/s 756 mm Hg 46%
18:00 +9°C° 0 mm 3 m/s 756 mm Hg 52%
19:00 +8°C° 0 mm 3 m/s 757 mm Hg 59%
20:00 +6°C° 0 mm 2 m/s 757 mm Hg 66%
21:00 +6°C° 0 mm 2 m/s 757 mm Hg 69%
22:00 +5°C° 0 mm 2 m/s 757 mm Hg 73%
23:00 +4°C° 0 mm 2 m/s 757 mm Hg 77%

19 Aprile, Lunedi

Tempo Temperatura Precipitazioni Vento Pressione Umidità
00:00 +4°C° 0 mm 2 m/s 757 mm Hg 79%
01:00 +4°C° 0 mm 2 m/s 757 mm Hg 81%
02:00 +3°C° 0 mm 2 m/s 758 mm Hg 83%
03:00 +3°C° 0 mm 2 m/s 758 mm Hg 85%
04:00 +3°C° 0 mm 2 m/s 758 mm Hg 88%
05:00 +3°C° 0 mm 2 m/s 758 mm Hg 90%
06:00 +4°C° 0 mm 2 m/s 758 mm Hg 84%
07:00 +4°C° 0 mm 3 m/s 758 mm Hg 78%
08:00 +5°C° 0 mm 3 m/s 758 mm Hg 72%
09:00 +7°C° 0 mm 3 m/s 758 mm Hg 65%
10:00 +8°C° 0 mm 3 m/s 758 mm Hg 58%
11:00 +8°C° 0 mm 4 m/s 758 mm Hg 51%
12:00 +8°C° 0 mm 4 m/s 758 mm Hg 48%
13:00 +10°C° 0 mm 3 m/s 758 mm Hg 44%
14:00 +10°C° 0 mm 3 m/s 758 mm Hg 41%
15:00 +10°C° 0 mm 3 m/s 758 mm Hg 42%
16:00 +10°C° 0 mm 3 m/s 758 mm Hg 43%
17:00 +9°C° 0 mm 3 m/s 758 mm Hg 45%
18:00 +8°C° 0 mm 2 m/s 758 mm Hg 50%
19:00 +7°C° 0 mm 2 m/s 758 mm Hg 56%
20:00 +5°C° 0 mm 2 m/s 758 mm Hg 61%
21:00 +5°C° 0 mm 2 m/s 758 mm Hg 63%
22:00 +4°C° 0 mm 2 m/s 758 mm Hg 65%
23:00 +3°C° 0 mm 2 m/s 758 mm Hg 67%

20 Aprile, Martedi

Tempo Temperatura Precipitazioni Vento Pressione Umidità
00:00 +3°C° 0 mm 2 m/s 758 mm Hg 69%
01:00 +2°C° 0 mm 2 m/s 759 mm Hg 71%
02:00 +1°C° 0 mm 2 m/s 759 mm Hg 72%
03:00 +1°C° 0 mm 2 m/s 759 mm Hg 73%
04:00 -1°C° 0 mm 2 m/s 759 mm Hg 74%
05:00 -1°C° 0 mm 2 m/s 759 mm Hg 75%
06:00 +1°C° 0 mm 3 m/s 759 mm Hg 66%
07:00 +3°C° 0 mm 3 m/s 759 mm Hg 56%
08:00 +5°C° 0 mm 4 m/s 759 mm Hg 47%
09:00 +6°C° 0 mm 4 m/s 758 mm Hg 42%
10:00 +7°C° 0 mm 4 m/s 758 mm Hg 38%
11:00 +8°C° 0 mm 5 m/s 758 mm Hg 33%
12:00 +8°C° 0 mm 5 m/s 758 mm Hg 32%
13:00 +9°C° 0 mm 5 m/s 757 mm Hg 30%
14:00 +9°C° 0 mm 5 m/s 757 mm Hg 29%
15:00 +10°C° 0 mm 4 m/s 757 mm Hg 31%
16:00 +10°C° 0 mm 4 m/s 756 mm Hg 33%
17:00 +10°C° 0 mm 3 m/s 756 mm Hg 35%
18:00 +8°C° 0 mm 3 m/s 756 mm Hg 42%
19:00 +5°C° 0 mm 3 m/s 756 mm Hg 49%
20:00 +4°C° 0 mm 2 m/s 756 mm Hg 56%
21:00 +4°C° 0 mm 2 m/s 756 mm Hg 58%
22:00 +3°C° 0 mm 2 m/s 756 mm Hg 60%
23:00 +3°C° 0 mm 2 m/s 756 mm Hg 62%
Mostrare altro

Abbiamo bisogno del tuo consenso

Meteoprog e i nostri fornitori di servizi possono memorizzare e accedere a dati personali come cookie, identificatori di dispositivi o altre tecnologie simili sul tuo dispositivo e possono elaborare tali dati per personalizzare i contenuti e gli annunci, nonché fornire funzionalità dei social media e analizzarne il traffico.

  • Archiviare e/o accedere alle informazioni sul tuo dispositivo

    Cookie, identificatori di dispositivi o altre informazioni possono essere memorizzati o resi accessibili sul tuo dispositivo per le finalità sopra indicate.

  • Annunci e contenuti personalizzati, misurazione di annunci e contenuti, approfondimenti sul pubblico e sviluppo di prodotti

    Gli annunci e i contenuti possono essere personalizzati in base a un profilo. È possibile aggiungere più dati per personalizzare meglio annunci e contenuti. È possibile misurare il rendimento degli annunci e dei contenuti. È possibile ricavare informazioni sul pubblico che ha visto gli annunci e i contenuti. Tali dati possono essere utilizzati per sviluppare o migliorare l'esperienza, i sistemi e il software dell'utente.

Cliccando su “Accetto”, acconsenti all'uso di cookie, identificatori di dispositivo, web beacon o altre tecnologie simili. Puoi modificare le impostazioni nel browser del tuo dispositivo.

Per determinati scopi, è possibile fare affidamento su interessi legali, piuttosto che sul consenso. Puoi approfondire questo argomento consultando la nostra Informativa sulla privacy e sui cookie.